Terminal Aerodrome Forecast
Issued by NWS Sioux Falls, SD

Home | Current Version | Previous Version | Text Only | Print | Product List | Glossary On
Versions: 1 2 3 4 5 6 7 8 9 10 11 12 13 14 15 16 17 18 19 20 21 22 23 24 25 26 27 28 29 30 31 32 33 34 35
000
FTUS43 KFSD 192328
TAFSUX
TAF
KSUX 192328Z 2000/2024 19012KT P6SM SCT035 SCT100
     FM200200 22012KT P6SM VCTS SCT045CB BKN120
     FM200400 25007KT P6SM SCT045 BKN120
     FM201000 30006KT P6SM FEW150
     FM201500 32009KT P6SM SKC
     FM202000 32011G17KT P6SM SKC=

USA.gov is the U.S. government's official web portal to all federal, state and local government web resources and services.